De Soto, IL

5:25 AM CST on February 07, 2016 (GMT -0600)
Southern Illinois

Weather History for KMDH - December, 2011

Change the Weather History Date:

Monday, December 19, 2011

  Actual Average Record
Temperature  
Mean Temperature 46 °F -  
Max Temperature 50 °F 45 °F 66 °F (1976)
Min Temperature 43 °F 24 °F 0 °F (1963)
Degree Days  
Heating Degree Days 18    
Moisture  
Dew Point 40 °F    
Average Humidity 73    
Maximum Humidity 89    
Minimum Humidity 61    
Precipitation  
Precipitation 0.02 in - - ()
Sea Level Pressure  
Sea Level Pressure 30.10 in    
Wind  
Wind Speed 11 mph (SSW)    
Max Wind Speed 20 mph    
Max Gust Speed 28 mph    
Visibility 10 miles    
Events Rain    
Averages and records for this station are not official NWS values.
T = Trace of Precipitation, MM = Missing Value Source: NWS Daily Summary

Daily Weather History Graph

Daily Weather History Graph

Search for Another Location

Airport or City:

Trip Planner

Search our weather history database for the weather conditions in past years. The results will help you decide how hot, cold, wet, or windy it might be!

Date:

Astronomy

Dec. 19, 2011 Rise Set
Actual Time 7:07 AM CST 4:40 PM CST
Civil Twilight 6:38 AM CST 5:09 PM CST
Nautical Twilight 6:05 AM CST 5:42 PM CST
Astronomical Twilight 5:33 AM CST 6:14 PM CST
Moon 1:21 AM CST (12/19) 12:35 PM CST (12/19)
Length of Visible Light 10h 31m
Length of Day
9h 33m
Waning Crescent, 31% of the Moon is Illuminated
Dec 19
Waning Crescent
Dec 24
New
Jan 1
First Quarter
Jan 9
Full
Jan 16
Last Quarter

Hourly Weather History & Observations

Time (CST) Temp. Windchill Dew Point Humidity Pressure Visibility Wind Dir Wind Speed Gust Speed Precip Events Conditions
12:52 AM 48.9 °F - 39.0 °F 69% 30.10 in 10.0 mi SSW 13.8 mph - N/A   Overcast
1:52 AM 50.0 °F - 37.9 °F 63% 30.09 in 10.0 mi SSW 19.6 mph 27.6 mph N/A   Overcast
3:52 AM 50.0 °F - 37.0 °F 61% 30.07 in 10.0 mi SSW 19.6 mph 25.3 mph N/A   Overcast
4:52 AM 48.9 °F - 37.0 °F 64% 30.08 in 10.0 mi SSW 16.1 mph 23.0 mph 0.00 in   Overcast
6:52 AM 48.9 °F - 36.0 °F 61% 30.09 in 10.0 mi SSW 13.8 mph 21.9 mph 0.00 in Rain Light Rain
7:52 AM 48.9 °F - 37.0 °F 64% 30.11 in 10.0 mi SSW 12.7 mph - 0.00 in   Overcast
8:52 AM 48.0 °F - 37.9 °F 68% 30.13 in 10.0 mi SSW 8.1 mph - 0.00 in   Overcast
9:52 AM 48.9 °F - 37.9 °F 66% 30.14 in 10.0 mi SSW 8.1 mph - N/A   Overcast
10:52 AM 48.9 °F - 37.9 °F 66% 30.13 in 10.0 mi SW 8.1 mph - N/A   Overcast
11:52 AM 48.9 °F - 41.0 °F 74% 30.12 in 8.0 mi SSW 4.6 mph - 0.01 in Rain Light Rain
1:52 PM 48.9 °F - 41.0 °F 74% 30.08 in 10.0 mi South 5.8 mph - 0.00 in   Overcast
2:52 PM 48.9 °F - 41.0 °F 74% 30.06 in 10.0 mi South 5.8 mph - 0.00 in   Overcast
3:52 PM 48.9 °F - 41.0 °F 74% 30.08 in 10.0 mi SSW 4.6 mph - N/A   Overcast
4:52 PM 48.9 °F - 39.9 °F 71% 30.09 in 10.0 mi SSW 9.2 mph - N/A   Overcast
5:52 PM 46.9 °F - 41.0 °F 80% 30.10 in 10.0 mi West 3.5 mph - 0.00 in   Overcast
6:52 PM 46.9 °F - 42.1 °F 83% 30.12 in 10.0 mi North 4.6 mph - N/A   Overcast
7:52 PM 46.9 °F - 42.1 °F 83% 30.13 in 10.0 mi North 4.6 mph - N/A   Overcast
8:52 PM 46.0 °F - 42.1 °F 86% 30.11 in 10.0 mi Calm Calm - N/A   Overcast
9:52 PM 46.0 °F - 41.0 °F 83% 30.11 in 10.0 mi Calm Calm - N/A   Mostly Cloudy
10:52 PM 43.0 °F 41.3 °F 39.9 °F 89% 30.13 in 10.0 mi South 3.5 mph - 0.01 in   Mostly Cloudy
11:52 PM 43.0 °F - 39.9 °F 89% 30.11 in 10.0 mi Calm Calm - N/A   Mostly Cloudy